SAUDICOMSAT 2

Last updated on Fri Dec 29 2023 00:03:02 GMT+0000 (Greenwich Mean Time)

1 28370U 04025E 23362.49779568 .00000651 00000+0 18273-3 0 9997 2 28370 98.6097 335.9097 0058070 108.7735 251.9769 14.48407656 29553
UTC large
Height (km)
Speed (km/s)
/
Latitude / Longitude
Inclination (degrees)
Orbital Period (minutes)
Azimuth
Elevation
Range (km)
Doppler Factor

Next 0 passes for location: London (51.5072 / 0.1276)

Sorry there are no passes over London.